OBJECT L, 44889

Orbit data source: Space-Track

You're viewing an Uncataloged Satellite

Recently launched and/or uncataloged satellites may have evolving metadata. Metadata may include but not limited to: Owner, Maufacturer, Bus, Motor, and Mission.

OBJECT L, 44889 is a satellite in SSO that was launched on Fri, 20 Dec 2019 UTC via a CHANG ZHENG 4B launch vehicle from the Taiyaun Space Center, China (TSC). Unknown objects in Earth's orbit typically refer to objects detected orbiting the Earth but have not yet been identified or cataloged. These objects could be anything from previously untracked satellites, spent rocket stages, debris from satellite collisions, or even natural meteoroids temporarily captured by Earth's gravity.

Loading next visibility...
Identifier
44889, 2019-093L
Orbit
SSO
Country
Flag of TBDTBD
Related business
None
Manufacturer
Unknown
Mission
Commercial Imaging
Bus & Motor
Unknown
Mass
Unknown
Launch date (UTC)
2019-12-20 (6 years ago)
Launch vehicle
CHANG ZHENG 4B
Launch site
Taiyaun Space Center, China (TSC)
Object type
Unknown
Shape & HBR
Box, Unknown HBR
Radar Cross Section
0.080 m², Medium (>0.1 m² and < 1m²)

Expand to show TLE details & history
Last TLE update: 6 days ago

TLE from 6 days ago
0 OBJECT L
1 44889U 19093L   26155.13133678  .00002124  00000-0  20195-3 0  9995
2 44889  97.7557 233.5473 0013306  94.0952 266.1790 14.94459567349858
Epoch: 2026-06-04T03:09Z
TLE epoch observation values (Epoch: 2026-06-04T03:09:07.497Z)
Latitude
0.00002°
Longitude
-66.31395°
Altitude
587.726 km
Speed
7.566 km/s
True Right ascension
15h 34m 11s
True Declination
0° 00' 00"
Sunlit
Object was in full shadow at epoch
Visualization orbit readout
Latitude
Unknown
Longitude
Unknown
Altitude
Unknown
Speed
Unknown
Apparent Right ascension
Unknown
Apparent Declination
Unknown
Sunlit
N/A
Visualization observer readout
Local Sidereal Time
01:52:07
Azimuth
Unknown
Elevation
Unknown
Doppler factor
Unknown
Orbital elements
Apogee altitude
590.326 km
Perigee altitude
571.806 km
Semi-major axis
6,959.203 km
Eccentricity
0.00133
Inclination
97.7557°
RAAN
233.5473°
Arg. of periapsis
94.0952°
True anomaly
266.02688°
Mean anomaly
266.179°
Eccentric anomaly
266.10294°
Mean motion
3.73856 °/min
Orbital period
96.29 mins
BSTAR
0.00020195
Loading maneuver chart data...
Computing Atmospheric mass density...
Loading historical data...
Loading historical data...
Loading historical data...
Loading historical data...
Loading historical data...
Loading historical data...
Loading historical data...

Documentation

Showing up to 5 results
|